Погода Охоны

Погода Охоны : погода сейчас, прогноз погоды и архив. Всё, что Вы хотите узнать о погоде Охоны!

Поиск расширенной информации на нашем сайте:

Другие новости

Новости СМИ2

Главная страница сайта

Новости сайта

03.07.2017

Напоминаем, что на нашем специализированном сайте Метеоцентр.Азия вы можете получить высокодетализированные автоматические прогнозы погоды по пунктам России, СНГ и мира в авиационном формате (включающие направление и скорость ветра, видимость, явления погоды, количество и форму облачности, нижнюю и верхнюю границу облачности).

Рекомендуем: Санаторий прометей плюс.

Погода Охоны - сегодня

Время (UTC), дата Ветер
(°,м/с) 
Видим.   Явления Облачность Т
(°С)
Тd
(°С)
f(%) Тe
(°С)
Pmin
(гПа)
dP
(гПа)
Po
(мм)
O2
(г/м3)
Тmin Tmax R s Состояние
почвы
15 19.07.17 320 (СЗ) 2{13}  н/о    н/о 
+15.8 +9.8 67 +18  1014.1  0.5  748  283           
18 19.07.17 270 (З) 20000 м  в посл. час ливневой дождь{гроза}  8/4 300 м кучево-дожд., средняя, верхняя 
[Cb cap|Ac cuf|Ci ing]
+13 +10.3 84 +16  1014.8  0.6  748  286    +19.4     
21 19.07.17 250 (З) н/о    н/о 
+9.5 +9 97 +10  1015  748  290           
00 20.07.17 тихо ()   н/о    н/о 
+10.3 +9.8 97 +11  1014.5  -0.5  748  288           
03 20.07.17 230 (ЮЗ) н/о    н/о 
+11.1 +10.2 94 +13  1014  -0.5  747  287  +8.9         
06 20.07.17 170 (Ю) 20000 м    9/3 300 м кучево-дожд., средняя 
[Cb cap|Ac As]
+16 +11.7 76 +21  1013.8  0.1  747  282  +8.9        влажная 
09 20.07.17 190 (Ю) 1{12}  н/о    н/о 
+17 +12.4 74 +23  1013.3  -0.4  747  281           
12 20.07.17 210 (ЮЗ) н/о    н/о 
+17 +12.4 74 +23  1013.3  -0.6  747  281           
15 20.07.17 120 (ЮВ) н/о    н/о 
+17 +11.6 70 +21  1012.6  -0.6  747  281           
18 20.07.17 тихо ()   20000 м  {гроза, ливн. осадки}  8/1 300 м кучево-дожд., средняя, верхняя 
[Cb cap|Ac lent|Ci ing]
+13.7 +11.9 89 +18  1012.4  -0.4  746  284    +19.5     
21 20.07.17 тихо ()   н/о    н/о 
+11.7 +11.1 96 +14  1012.8  0.3  746  286           
00 21.07.17 тихо ()   н/о    н/о 
+10.6 +10.1 97 +12  1012.7  0.1  746  288           
03 21.07.17 тихо ()   н/о    н/о 
+9.4 +9 97 +9  1013.1  0.3  747  289  +9.2         
06 21.07.17 140 (ЮВ) 20000 м    8/4 300 м кучево-дожд., средняя 
[Cb cap|Ac As]
+13.9 +12.1 89 +19  1013.1  0.3  747  284  +9.2        влажная 
09 21.07.17 290 (З) н/о    н/о 
+17 +10.7 66 +20  1012.7  -0.3  747  281           
12 21.07.17 200 (Ю) н/о    н/о 
+16.6 +14.3 86 +26  1013.2  0.5  747  281           
15 21.07.17 300 (СЗ) н/о    н/о 
+18.1 +9.9 59 +21  1013.5  0.3  747  281           
18 21.07.17 260 (З) 20000 м  {гроза, ливн. осадки}  3/0 средняя 
[Ac lent]
+13.4 +12 91 +19  1014.6  0.8  748  285    +19.6     
21 21.07.17 260 (З) н/о    н/о 
+9.5 +9 97 +10  1015.2  0.4  748  290           
00 22.07.17 250 (З) н/о    н/о 
+8.3 +7.9 97 +8  1015.6  0.4  748  291           
03 22.07.17 260 (З) н/о    н/о 
+9.3 +9 98 +10  1016.1  0.5  749  290  +7         
06 22.07.17 330 (СЗ) 20000 м    ясно 
+17.7 +12 69 +23  1015.5  0.1  749  281  +7        влажная 
09 22.07.17 330 (СЗ) н/о    н/о 
+19.7 +9.5 52 +22  1015.4  749  280           
12 22.07.17 300 (СЗ) н/о    н/о 
+20.4 +8.5 46 +20  1014.3  -1.1  748  279           
15 22.07.17 320 (СЗ) 2{10}  н/о    н/о 
+13.8 +12.9 94 +19  1015.9  1.2  749  285           
Время (UTC), дата Ветер
(°,м/с) 
Видим.   Явления Облачность Т
(°С)
Тd
(°С)
f(%) Тe
(°С)
Pmin
(гПа)
dP
(гПа)
Po
(мм)
O2
(г/м3)
Тmin Tmax R s Состояние
почвы

Для получения пояснительной информации подведите курсор к названию столбца.

ПОГОДА Охоны - архив

Всё, что Вы хотите узнать о погоде Охоны - удобно и подробно!

Выберите нужную дату (начиная с 1 января 2015* года) и нажмите кнопку "Найти".
Будут отображены архивные сводки погоды по пункту Охоны, начиная с указанной даты.


Отображать данные в формате CSV (для использования в таблицах Excel)


Внимание! Наш архив погоды предназначен исключительно для личного некоммерческого использования в познавательных целях. Если Вам необходимы официальные справки о состоянии погоды (для производственных, юридических, коммерческих и т.п. целей), обращайтесь в органы Росгидромета.

*Примечание: данная дата относится к архиву по метеостанциям СССР (Россия, СНГ, Балтия).
Архив по метеостанциям Зарубежной Европы и Азии (кроме Китая) хранится 10 дней, по другим регионам земного шара (Китай, Африка, Америка, Австралия, Океания) - 1 день.

Охоны - район местоположения метеостанции


Название, широта, долгота, высота метеостанции:
Охоны 58.6°ш. 35.6°д. 145 м над ур. моря [Российская Федерация]

Дополнительная информация

В oтличие oт бoльшинства пoгoдных сайтoв мы публикуем пoдрoбную метеoинфoрмацию в детальнoм прoфессиoнальнoм фoрмате.

Характеристики температуры и влажнoсти вoздуха измеряются на высoте 2 м в тени вдали oт зданий и деревьев.
Скoрoсть ветра измеряется на высoте 10 м (на урoвне рoста челoвека скoрoсть ветра ниже в 1.5-2 раза). Если метеoстанция нахoдится в гoрoде или в лесу, тo скoрoсть ветра занижена на 2-4 м/с пo сравнению с oткрытым местoм. Скoрoсть ветра над акватoриями крупных рек и oзёр, а также на вершинах хoлмoв на 2-5 м/с выше, чем в oбычных услoвиях.
Атмoсфернoе давление в разных тoчках местнoсти мoжет значительнo oтличаться oт давления на метеoстанции, в зависимoсти oт услoвий рельефа (при пoдъёме на 10 м давление пoнижается примернo на 1 мм рт.ст.).